Wind_Speed
30 30 29 26 25 23 20 18 18 16 19 23 22 19 19 19 22 24 22 21 21 21 22 23 26 27 24 22 22 23 24 25 26 27 28 29 29 30 30 31 32 32 32 32
30 29 28 27 25 25 26 24 22 21 24 27 26 23 23 24 26 25 25 25 24 26 27 28 28 26 26 27 27 26 27 28 28 29 30 31 32 33 33 34 34 35 35 34
27 25 27 28 26 27 28 27 24 22 24 28 28 26 24 26 28 29 29 28 29 30 30 30 30 30 32 31 29 28 30 32 31 31 33 34 34 35 35 36 36 38 38 36
25 25 25 28 28 28 28 27 26 25 26 27 27 26 25 26 28 30 31 31 33 34 34 34 34 35 35 34 34 32 33 33 33 34 35 36 36 37 38 38 38 39 39 38
23 24 24 25 26 27 27 25 26 28 29 29 28 27 24 23 27 30 32 33 34 34 34 35 36 36 36 36 37 35 35 35 35 36 36 38 39 40 41 41 41 42 41 40
20 22 24 24 25 26 25 25 25 27 28 30 27 26 23 22 28 32 34 34 33 33 34 35 36 36 37 37 36 36 37 37 37 38 38 39 40 42 43 43 43 43 43 42
17 19 21 23 23 24 24 24 24 24 25 25 21 23 26 27 33 35 36 36 35 35 34 34 35 36 36 36 36 37 37 38 38 39 40 41 41 43 43 44 44 44 43 43
12 15 18 21 22 21 23 24 23 20 18 18 17 21 27 32 35 37 37 38 38 38 37 35 35 35 34 34 35 36 37 37 38 39 40 41 42 43 44 44 45 45 45 44
11 14 16 18 19 20 20 22 21 22 21 19 17 22 29 32 33 35 37 39 40 40 38 36 34 33 32 32 32 33 34 36 37 38 39 41 42 43 44 44 45 45 46 47
13 13 14 15 17 20 21 19 20 23 24 21 17 21 28 30 32 33 34 36 37 36 35 34 32 31 31 31 32 33 34 35 36 38 39 40 42 43 44 45 46 47 49 50
14 13 12 13 14 15 19 21 22 24 24 23 21 24 26 29 32 33 33 30 30 31 31 31 30 30 30 30 31 33 34 35 36 37 39 41 43 44 46 48 49 51 52 52
14 15 14 14 15 16 19 20 22 25 25 25 25 28 30 30 31 30 28 27 26 28 29 29 30 31 31 32 32 34 35 36 38 40 41 43 45 46 48 50 52 53 54 54
14 15 14 13 14 18 20 21 22 24 25 25 24 29 31 31 33 33 31 28 27 27 27 28 30 31 32 33 34 36 37 38 40 42 44 45 47 48 50 52 53 54 55 56
14 14 15 16 17 18 20 22 23 24 24 25 27 31 32 32 32 32 32 30 28 27 28 29 31 33 34 36 37 38 40 41 42 44 45 47 48 49 51 52 53 54 55 56
12 14 16 17 16 16 17 18 20 22 23 25 28 32 34 36 34 33 32 30 28 28 29 31 33 34 36 37 38 39 41 42 43 44 45 46 47 49 50 52 53 55 57 58
13 14 15 16 16 17 16 18 19 21 23 25 29 31 32 34 36 33 30 27 27 28 30 32 34 36 38 39 41 42 42 43 44 45 46 48 50 51 53 54 55 56 56 57
13 15 15 15 17 17 17 19 21 22 24 27 29 31 32 32 30 31 30 30 31 32 33 34 35 36 37 39 40 41 41 42 43 45 46 48 49 50 50 52 53 53 54 54
13 15 16 16 17 18 22 23 23 24 25 27 29 31 33 33 34 33 33 33 33 33 33 34 35 36 36 36 37 38 40 40 41 43 45 46 47 48 50 51 51 52 52 53
13 14 15 16 16 18 23 24 25 26 28 28 29 31 32 32 33 34 34 33 33 32 32 33 34 34 34 36 37 37 38 40 42 44 45 45 46 47 47 48 49 49 50 50
14 14 15 16 18 20 22 23 23 24 27 27 28 29 30 31 32 33 32 31 31 31 31 31 32 33 34 36 36 37 38 40 41 42 43 43 44 44 45 46 46 47 47 48
15 15 15 16 18 20 21 23 23 24 25 24 26 27 27 28 28 28 28 28 29 30 30 31 31 32 33 34 35 36 36 38 39 40 40 41 42 43 43 44 45 45 45 45
15 15 15 16 17 19 19 20 22 22 23 23 23 23 24 24 24 25 26 26 27 28 28 29 30 31 31 32 33 34 35 36 37 38 39 40 41 42 42 42 41 41 40 40
15 15 15 16 17 18 17 18 19 20 21 21 21 21 21 22 22 23 24 24 25 26 27 27 27 28 29 30 31 32 33 34 35 37 38 38 39 39 38 37 36 35 34 34
16 15 15 15 16 16 16 16 17 18 19 20 20 20 20 20 21 21 21 23 23 23 23 23 24 26 27 28 29 30 31 32 34 34 35 35 34 34 32 31 31 30 29 29
16 16 15 15 15 15 14 15 15 17 18 18 18 19 19 19 19 20 20 19 19 19 20 21 22 23 24 25 27 28 30 31 31 31 31 30 29 28 27 26 26 26 25 24
15 15 15 14 14 14 14 15 16 16 16 16 16 16 17 17 17 17 16 16 17 18 18 19 20 21 22 24 25 26 27 28 28 28 27 26 24 23 22 22 21 21 20 19
Wind_Direction
228 228 227 228 230 228 219 225 232 228 235 248 244 228 210 218 231 232 231 234 237 242 247 249 253 257 261 266 271 276 277 283 288 290 291 293 296 297 300 302 306 309 311 313
229 229 227 227 228 225 222 224 224 223 229 241 244 237 221 220 232 236 233 233 235 238 238 243 253 260 265 269 272 272 275 280 283 284 285 285 287 290 294 297 302 304 306 307
229 228 229 226 226 229 227 228 225 224 232 245 246 245 236 231 237 241 241 239 239 242 246 250 256 261 266 268 270 271 273 276 278 280 279 279 282 286 288 291 295 299 299 301
226 223 228 228 226 230 232 230 227 225 232 242 250 250 242 241 243 246 246 244 244 246 250 255 259 262 266 269 270 271 273 273 275 276 275 276 279 281 285 287 290 294 294 296
228 225 228 232 228 231 233 232 234 232 233 238 244 250 247 246 248 249 250 250 252 254 256 258 261 263 266 269 269 271 272 272 272 272 273 274 276 279 281 283 286 287 290 291
226 230 230 232 232 233 235 233 235 238 240 244 243 245 247 242 246 248 251 255 257 259 260 261 262 264 265 267 265 268 269 269 269 270 271 273 274 276 278 281 283 284 285 288
230 233 235 234 235 234 236 235 237 242 246 253 256 250 244 237 240 245 251 255 259 263 265 266 265 264 264 264 264 265 266 267 268 269 270 271 272 274 277 279 280 282 284 288
240 237 240 241 239 237 238 237 235 236 247 256 253 249 244 240 241 245 250 256 261 265 267 267 266 265 264 263 263 263 264 266 267 268 269 270 272 273 276 278 280 283 285 288
230 228 229 239 241 237 236 239 235 234 232 240 245 242 244 246 248 250 254 257 261 264 265 265 265 263 262 262 262 261 262 263 264 266 267 269 272 274 276 279 282 284 285 287
230 227 226 236 240 243 240 234 233 231 233 235 239 247 252 253 254 256 258 259 259 261 262 263 262 261 260 260 260 260 261 262 264 265 267 269 271 273 276 279 282 283 285 286
234 234 228 233 239 241 242 233 232 234 231 237 246 249 255 255 251 250 252 256 255 256 258 260 260 260 260 260 260 261 262 262 264 265 267 269 272 274 277 279 281 283 285 287
236 237 232 233 235 232 236 236 234 235 234 235 242 256 256 257 257 258 256 255 258 257 258 259 259 260 260 260 260 261 262 263 265 266 268 271 273 275 277 279 281 283 285 286
242 243 245 238 233 235 233 228 233 240 239 237 241 255 256 257 260 261 262 261 259 255 256 258 259 260 260 261 262 263 264 265 267 268 270 272 274 276 278 280 282 283 283 284
249 248 251 249 246 243 237 225 228 234 240 242 240 249 252 256 259 261 260 259 257 255 257 258 259 260 261 262 264 266 266 267 269 271 273 274 276 278 280 280 282 283 284 286
256 251 252 261 266 265 257 246 237 236 240 246 246 247 251 255 259 260 260 260 258 258 260 260 260 262 264 266 267 269 270 271 272 274 276 278 279 281 282 282 283 284 286 287
269 263 258 260 268 272 270 256 251 245 246 247 251 255 254 261 260 264 263 261 266 265 263 263 266 268 267 269 270 271 273 274 274 275 278 280 282 282 283 283 284 285 287 288
275 272 268 263 257 262 263 258 254 251 251 252 256 259 263 267 267 268 270 271 270 271 271 269 269 271 272 273 275 274 275 277 279 280 281 283 284 285 286 286 286 289 291 292
282 276 274 268 262 255 252 255 259 261 262 261 260 262 266 268 269 272 275 276 275 274 273 274 275 276 277 277 279 281 283 282 284 286 286 286 287 288 290 291 291 292 292 292
291 284 279 271 265 260 257 262 262 263 265 265 266 265 267 269 271 274 276 277 277 276 277 278 280 281 281 283 285 284 285 287 287 289 290 291 291 292 293 293 293 293 294 294
298 291 282 274 269 260 261 263 265 266 265 268 270 270 270 271 273 274 276 278 280 279 280 281 281 282 284 285 286 287 288 290 291 292 293 294 295 295 296 296 296 296 296 296
303 296 288 280 275 270 270 270 273 274 276 275 274 274 274 273 273 275 277 278 280 281 281 281 282 283 284 287 288 290 292 294 296 297 298 298 298 298 299 299 298 298 298 298
310 303 296 288 282 280 281 276 275 276 280 282 282 280 279 279 279 279 281 283 284 284 284 284 285 286 288 290 292 295 298 299 300 301 301 302 302 301 301 301 301 301 300 300
315 310 303 296 291 287 286 284 282 284 284 285 285 286 285 285 285 285 286 286 287 288 289 288 290 293 295 297 300 302 303 303 304 305 305 306 306 306 306 305 304 304 304 304
320 316 308 302 298 294 292 289 288 288 288 288 288 288 289 288 287 286 287 288 288 289 292 295 297 299 301 304 306 307 308 309 310 311 311 311 311 311 310 310 309 309 309 309
319 318 314 310 306 303 300 297 294 294 294 291 290 290 291 293 292 292 294 295 296 298 300 301 302 304 306 308 311 313 314 314 314 315 315 315 316 316 316 316 315 316 317 318
320 318 316 314 311 309 307 305 302 300 299 296 297 296 296 296 297 299 300 300 302 303 305 307 308 310 312 315 316 317 318 319 321 321 321 321 321 322 322 323 325 326 328 329
Height
5801 5806 5810 5815 5819 5823 5826 5831 5835 5839 5841 5840 5842 5846 5849 5852 5854 5856 5858 5860 5861 5863 5863 5862 5861 5860 5860 5862 5865 5865 5864 5865 5866 5866 5865 5864 5864 5862 5861 5860 5858 5857 5855 5854
5796 5801 5805 5808 5813 5817 5820 5824 5829 5834 5836 5836 5838 5841 5845 5847 5849 5851 5853 5855 5856 5857 5855 5856 5856 5856 5856 5858 5860 5860 5860 5860 5861 5861 5860 5859 5858 5857 5856 5855 5853 5852 5850 5848
5791 5797 5799 5802 5807 5811 5814 5818 5823 5828 5830 5830 5833 5836 5839 5841 5843 5845 5847 5849 5850 5850 5851 5852 5853 5853 5853 5852 5853 5855 5855 5855 5855 5854 5853 5852 5851 5851 5850 5848 5847 5846 5844 5842
5786 5790 5793 5797 5801 5805 5809 5812 5816 5820 5823 5825 5827 5829 5833 5835 5836 5838 5839 5841 5842 5843 5845 5847 5847 5848 5847 5846 5846 5847 5848 5847 5847 5847 5846 5845 5844 5844 5843 5842 5841 5839 5837 5836
5781 5785 5788 5792 5796 5800 5803 5807 5810 5813 5815 5818 5821 5823 5828 5829 5830 5830 5831 5832 5835 5837 5839 5840 5840 5840 5841 5840 5840 5839 5840 5841 5841 5840 5839 5838 5837 5836 5835 5834 5833 5832 5830 5829
5777 5780 5783 5787 5790 5794 5797 5801 5804 5806 5809 5811 5815 5818 5822 5824 5822 5821 5822 5825 5827 5830 5831 5832 5832 5833 5833 5832 5831 5830 5832 5833 5832 5832 5831 5830 5829 5828 5827 5826 5825 5824 5822 5820
5774 5777 5779 5782 5785 5789 5792 5796 5799 5801 5804 5807 5811 5812 5815 5814 5813 5814 5816 5818 5820 5822 5823 5824 5824 5825 5825 5825 5825 5825 5824 5824 5824 5823 5822 5822 5821 5820 5819 5817 5816 5815 5813 5811
5771 5775 5776 5778 5781 5784 5787 5791 5795 5799 5802 5804 5807 5807 5806 5806 5807 5809 5811 5812 5813 5814 5815 5815 5816 5816 5816 5816 5816 5816 5816 5816 5815 5815 5814 5813 5812 5811 5810 5808 5807 5805 5804 5802
5768 5770 5772 5774 5776 5779 5783 5786 5790 5793 5795 5797 5800 5800 5797 5798 5800 5802 5804 5805 5805 5805 5806 5806 5806 5807 5807 5807 5807 5808 5808 5808 5807 5807 5806 5805 5804 5802 5801 5799 5798 5796 5794 5792
5764 5766 5768 5770 5773 5776 5779 5781 5784 5786 5789 5791 5795 5794 5792 5792 5793 5794 5795 5795 5795 5796 5797 5797 5797 5798 5798 5798 5799 5799 5799 5799 5799 5799 5798 5796 5795 5793 5792 5790 5788 5786 5783 5781
5761 5762 5765 5767 5769 5772 5774 5777 5778 5781 5784 5786 5789 5789 5784 5783 5783 5783 5784 5784 5785 5786 5788 5788 5789 5789 5790 5790 5791 5791 5791 5791 5791 5790 5789 5788 5786 5784 5782 5780 5778 5776 5773 5770
5758 5759 5761 5763 5765 5767 5769 5771 5773 5775 5777 5779 5781 5782 5778 5777 5775 5774 5774 5776 5777 5778 5779 5780 5781 5782 5782 5783 5783 5783 5782 5782 5782 5781 5780 5778 5776 5774 5772 5769 5767 5764 5761 5758
5755 5756 5757 5759 5762 5761 5762 5764 5767 5768 5770 5772 5775 5775 5770 5770 5768 5767 5767 5768 5770 5770 5771 5772 5773 5774 5774 5774 5774 5774 5773 5773 5772 5771 5769 5768 5766 5763 5760 5758 5754 5751 5748 5745
5752 5752 5754 5753 5753 5754 5754 5757 5759 5762 5763 5765 5766 5764 5764 5763 5761 5760 5759 5761 5762 5763 5764 5765 5765 5766 5766 5765 5765 5764 5763 5762 5761 5760 5758 5756 5754 5751 5748 5745 5742 5738 5735 5731
5748 5749 5749 5748 5748 5749 5750 5752 5753 5754 5755 5757 5757 5756 5756 5756 5754 5752 5752 5753 5754 5756 5757 5757 5757 5757 5757 5756 5755 5754 5753 5752 5750 5748 5746 5744 5741 5739 5736 5732 5729 5725 5721 5717
5745 5745 5745 5746 5745 5745 5745 5747 5748 5748 5748 5748 5748 5748 5748 5748 5747 5746 5745 5746 5746 5748 5749 5749 5748 5748 5747 5746 5745 5744 5742 5741 5739 5736 5734 5732 5729 5726 5722 5719 5715 5711 5707 5702
5741 5741 5741 5742 5742 5742 5742 5741 5741 5740 5740 5741 5742 5743 5741 5741 5740 5739 5739 5740 5740 5740 5741 5740 5739 5738 5737 5736 5734 5733 5732 5730 5728 5726 5723 5720 5717 5713 5709 5705 5701 5697 5692 5688
5738 5737 5737 5737 5738 5738 5738 5736 5736 5735 5734 5736 5736 5735 5734 5734 5734 5733 5733 5733 5733 5733 5732 5731 5731 5730 5728 5727 5725 5723 5721 5719 5717 5714 5711 5707 5704 5700 5696 5692 5688 5683 5678 5674
5734 5733 5733 5733 5733 5732 5730 5730 5730 5730 5729 5729 5729 5729 5728 5728 5727 5726 5726 5726 5726 5725 5725 5724 5722 5721 5719 5718 5716 5713 5711 5708 5706 5702 5699 5695 5692 5688 5683 5679 5674 5670 5665 5660
5731 5730 5729 5728 5727 5726 5726 5725 5724 5725 5723 5723 5722 5722 5722 5721 5721 5720 5719 5719 5718 5717 5717 5716 5714 5712 5711 5708 5706 5704 5701 5698 5695 5692 5688 5684 5680 5676 5671 5666 5662 5657 5652 5647
5728 5726 5725 5724 5722 5721 5721 5720 5720 5721 5719 5717 5716 5716 5715 5715 5714 5713 5712 5712 5711 5710 5709 5708 5706 5704 5702 5700 5697 5694 5691 5688 5685 5681 5677 5673 5668 5664 5659 5654 5649 5644 5639 5634
5724 5723 5721 5720 5718 5719 5716 5716 5716 5714 5712 5711 5711 5710 5709 5709 5708 5707 5706 5706 5705 5703 5702 5700 5698 5696 5694 5691 5689 5686 5682 5679 5675 5671 5667 5662 5657 5653 5648 5643 5637 5632 5627 5623
5721 5720 5717 5716 5716 5714 5712 5711 5710 5709 5708 5707 5706 5705 5704 5703 5702 5702 5701 5700 5698 5697 5695 5693 5691 5689 5687 5684 5681 5678 5674 5670 5666 5661 5657 5651 5646 5641 5636 5632 5627 5623 5618 5613
5719 5717 5715 5712 5710 5709 5708 5707 5706 5705 5703 5702 5701 5700 5700 5699 5698 5697 5696 5694 5693 5691 5689 5687 5685 5683 5680 5677 5674 5670 5666 5662 5657 5652 5647 5642 5637 5632 5628 5623 5619 5615 5610 5606
5717 5714 5712 5710 5708 5706 5705 5703 5702 5701 5699 5698 5697 5696 5695 5694 5693 5692 5691 5689 5688 5686 5684 5682 5680 5677 5675 5671 5668 5664 5659 5655 5650 5645 5640 5635 5631 5626 5621 5617 5613 5609 5604 5600
5714 5712 5710 5708 5706 5704 5702 5701 5699 5697 5696 5694 5693 5692 5691 5690 5689 5687 5686 5685 5683 5681 5679 5677 5675 5672 5669 5666 5662 5658 5654 5649 5644 5639 5634 5630 5626 5622 5617 5613 5609 5605 5601 5597